Regional Weather Roundup
Issued by NWS

Home | Current Version | Previous Version | Graphics & Text | Print | Product List | Glossary On
Versions: 1 2 3 4 5 6 7 8 9 10 11 12 13 14 15 16 17 18 19 20 21 22 23 24 25 26 27 28 29 30 31 32 33 34 35 36 37 38 39 40 41 42 43 44 45 46 47 48 49 50
840
ASUS43 KMKX 242100
RWRWI

WISCONSIN REGIONAL WEATHER ROUNDUP
NATIONAL WEATHER SERVICE MILWAUKEE/SULLIVAN WI
400 PM CDT SAT JUN 24 2017

NOTE: "FAIR" INDICATES FEW OR NO CLOUDS BELOW 12,000 FEET WITH NO
SIGNIFICANT WEATHER AND/OR OBSTRUCTIONS TO VISIBILITY.

WIZ001-002-006>008-014>016-023>028-242200-
NORTHWEST WISCONSIN

CITY           SKY/WX    TMP DP  RH WIND       PRES   REMARKS
SUPERIOR ARPT  NOT AVBL
ASHLAND        CLOUDY    60  49  66 W14       29.94S
HAYWARD        LGT RAIN  56  48  74 N7        29.96R
SIREN          CLOUDY    62  41  45 NW8       29.97S
CUMBERLAND     PTSUNNY   61  41  48 W14       29.98S
RICE LAKE      CLOUDY    59  43  55 SW13G23   30.00R
CHETEK         PTSUNNY   59  44  56 W17G25    29.99R
LADYSMITH      CLOUDY    59  47  63 W9        29.98F
EAU CLAIRE     NOT AVBL
MENOMONIE      LGT RAIN  58  45  61 NW8       29.99R
NEW RICHMOND   LGT RAIN  55  41  59 W21G33    30.02R
OSCEOLA        CLOUDY    58  46  66 SW15G22   30.04R
$$

WIZ003>005-009-010-017-018-242200-
NORTH CENTRAL WISCONSIN

CITY           SKY/WX    TMP DP  RH WIND       PRES   REMARKS
MANITOWISH WTR CLOUDY    56  54  92 NW10      29.93F
ARBOR VITAE    CLOUDY    57  53  88 NW5       29.93F
WOODRUFF       CLOUDY    57  53  88 NW5       29.93F
RHINELANDER    CLOUDY    58  50  75 NW8G17    29.94R
EAGLE RIVER    RAIN      53  47  79 W18G29    29.93R
LAND O LAKES   CLOUDY    57  51  78 W7        29.94R
PHILLIPS       CLOUDY    60  49  68 NW3       29.93S
TOMAHAWK       NOT AVBL
MEDFORD        LGT RAIN  58  46  65 W5        29.96R
MERRILL        MOSUNNY   64  44  48 NW13G21   29.94S
$$

WIZ029-030-035-036-043>047-242200-
CENTRAL WISCONSIN

CITY           SKY/WX    TMP DP  RH WIND       PRES   REMARKS
WAUSAU         MOSUNNY   66  44  45 W18G25    29.93S
MOSINEE        PTSUNNY   64  45  48 W9G20     29.96S
MARSHFIELD     MOSUNNY   65  42  43 W17G26    29.96F
STEVENS POINT  MOSUNNY   64  41  43 W17G23    29.97S
WAUPACA        MOSUNNY   68  38  33 W17G24    29.96S
WAUTOMA        PTSUNNY   66  43  43 W17G24    29.97S
WISC RAPIDS    MOSUNNY   68  43  40 NW10      29.98F
CAMP DOUGLAS   NOT AVBL
$$

WIZ011>013-019>022-031-037>040-048>050-242200-
NORTHEAST WISCONSIN

CITY           SKY/WX    TMP DP  RH WIND       PRES   REMARKS
ANTIGO         PTSUNNY   62  47  57 W13G20    29.93S
SHAWANO        CLOUDY    67  45  45 W12G17    29.92S
OCONTO         CLOUDY    67  51  55 W10G17    29.90R
STURGEON BAY     N/A     64  56  75 NW9         N/A
GREEN BAY      PTSUNNY   68  46  45 W17G25    29.92S
MANITOWOC      NOT AVBL
APPLETON       PTSUNNY   66  37  34 W22       29.94R
CLINTONVILLE   PTSUNNY   68  41  37 W13G21    29.93R
OSHKOSH        PTSUNNY   68  44  42 W13G25    29.94S
$$

WIZ032>034-041-042-053>061-242200-
SOUTHWEST WISCONSIN

CITY           SKY/WX    TMP DP  RH WIND       PRES   REMARKS
LA CROSSE      CLOUDY    69  43  38 W14       30.00F
SPARTA         PTSUNNY   67  43  41 W17G25    30.01F
VIROQUA        CLOUDY    67  47  49 W10       30.02F
BOSCOBEL       MOSUNNY   72  43  35 W13G22    30.03F
PRAIRIE DU CHI SUNNY     71  41  34 W10G16    30.03F
PLATTEVILLE    PTSUNNY   69  43  39 W17G25    30.05F
$$

WIZ056-057-062-063-064-067-068-242200-
SOUTH CENTRAL WISCONSIN

CITY           SKY/WX    TMP DP  RH WIND       PRES   REMARKS
REEDSBURG      PTSUNNY   68  44  42 W18G26    30.00F
BARABOO/DELLS  PTSUNNY   66  41  39 W12G22    30.00S
LONE ROCK      NOT AVBL
MINERAL POINT  PTSUNNY   68  43  40 W17G23    30.04F
MADISON        MOSUNNY   67  42  40 NW14G24   30.00R
MIDDLETON      MOSUNNY   70  45  41 W16G24    30.02S
WATERTOWN      MOSUNNY   67  51  55 W12       29.98F
MONROE         MOSUNNY   68  37  32 W22G32    30.03S
JANESVILLE     MOSUNNY   72  39  30 W21G31    29.99F
$$

WIZ051-052-058>065-066-070>072-242200-
SOUTHEAST WISCONSIN

CITY           SKY/WX    TMP DP  RH WIND       PRES   REMARKS
MILWAUKEE      MOSUNNY   73  47  39 W16G23    29.96S
WAUKESHA       PTSUNNY   64  48  55 W17       29.98S
MILWAUKEE/TIMM PTSUNNY   68  41  37 W15G23    29.97S
RACINE         MOSUNNY   71  46  40 W9G18     29.97F
KENOSHA        MOSUNNY   72  49  44 W18G24    29.97S
FOND DU LAC    MOSUNNY   67  43  41 W18G25    29.95S
SHEBOYGAN      MOSUNNY   70  49  47 W15G24    29.93S
WEST BEND      CLOUDY    64  45  48 W18G25    29.96S
JUNEAU         MOSUNNY   66  45  46 W13G22    29.99F
$$

LSZ147-162-242200-
LAKE SUPERIOR

STATION/POSITION TIME  TEMP    WIND        PRES    WAVE
                       AIR SEA DIR/SP/G            HT/PER
                 (UTC) (F)     (DEG/KT/KT) (MB)    (FT/S)
W MID LAKE BUOY  1950   45 39  260/  8/  8 1012.6R   1/ 4
DEVILS ISLAND    2000   53     240/ 18/ 22 1013.0R
SAXON HARBOR     2040   61     280/  7/ 10 1013.2R
$$

LMZ867-665-643>646-242200-
LAKE MICHIGAN

STATION/POSITION TIME  TEMP    WIND        PRES    WAVE
                       AIR SEA DIR/SP/G            HT/PER
                 (UTC) (F)     (DEG/KT/KT) (MB)    (FT/S)
CHAMBERS ISLAND  2040   59     250/  5/ 12 1012.5R
S GREEN BAY BUOY 2030   65     250/ 17/ 21 1012.4R
N MID LAKE BUOY  1950   60 59  210/  8/  8 1012.5R   0
NORTHPORT PIER   2040   61     270/  5/  7 1012.2S
KEWAUNEE LAKESHO 2030   67     270/ 12/ 17 1012.5R
SHEBOYGAN LAKESH 2000   68     270/ 15/ 17 1013.2R
PORT WASHINGTON  2040   71     280/  7/ 21 1014.6S
ATWATER BUOY     1909   67 60  250/ 14/ 14 1014.5F
MILWAUKEE LAKESH 2040   69     280/ 13/ 17   N/A
S MID LAKE BUOY  1950   65 63  300/ 10/ 12 1014.8S   1/ 3
KENOSHA   LAKESH 2000   71     270/ 13/ 21 1014.6
$$

TC  - TEMPERATURE IN CELSIUS
VSB - VISIBILITY IN STATUTE MILES
WCI - WIND CHILL INDEX
HX  - HEAT INDEX





USA.gov is the U.S. government's official web portal to all federal, state and local government web resources and services.